TimeEDT,TemperatureF,Dew PointF,Humidity,Sea Level PressureIn,VisibilityMPH,Wind Direction,Wind SpeedMPH,Gust SpeedMPH,PrecipitationIn,Events,Conditions,WindDirDegrees,DateUTC
12:56 AM,46.0,45.0,96,29.51,-9999.0,South,4.6,-,N/A,,Unknown,170,2012-11-01 04:56:00
1:56 AM,45.0,44.1,97,29.51,-9999.0,SSE,3.5,-,N/A,,Unknown,160,2012-11-01 05:56:00
2:56 AM,46.0,45.0,96,29.50,-9999.0,SSE,4.6,-,N/A,,Unknown,160,2012-11-01 06:56:00
3:56 AM,45.0,44.1,97,29.49,-9999.0,Variable,3.5,-,N/A,,Unknown,0,2012-11-01 07:56:00
4:56 AM,44.1,43.0,96,29.49,-9999.0,Calm,Calm,-,N/A,,Unknown,0,2012-11-01 08:56:00
5:56 AM,45.0,44.1,97,29.49,-9999.0,SSE,5.8,-,N/A,,Unknown,160,2012-11-01 09:56:00
6:56 AM,44.1,43.0,96,29.49,-9999.0,SSE,5.8,-,N/A,,Unknown,160,2012-11-01 10:56:00
7:56 AM,44.1,43.0,96,29.50,-9999.0,SSE,6.9,-,N/A,,Unknown,160,2012-11-01 11:56:00
8:56 AM,44.1,42.1,93,29.51,-9999.0,SSE,6.9,-,N/A,,Unknown,160,2012-11-01 12:56:00
9:56 AM,44.1,41.0,89,29.52,-9999.0,Variable,5.8,-,N/A,,Unknown,0,2012-11-01 13:56:00
10:56 AM,44.1,39.9,85,29.52,-9999.0,South,4.6,-,N/A,,Unknown,170,2012-11-01 14:56:00
11:56 AM,44.1,41.0,89,29.52,-9999.0,Calm,Calm,-,N/A,,Unknown,0,2012-11-01 15:56:00
12:56 PM,44.1,42.1,93,29.50,-9999.0,SSE,4.6,-,N/A,,Unknown,160,2012-11-01 16:56:00
1:56 PM,43.0,42.1,97,29.49,-9999.0,Variable,3.5,-,N/A,,Unknown,0,2012-11-01 17:56:00
2:56 PM,43.0,42.1,97,29.48,-9999.0,Variable,3.5,-,N/A,,Unknown,0,2012-11-01 18:56:00
3:56 PM,44.1,42.1,93,29.48,-9999.0,Calm,Calm,-,N/A,,Unknown,0,2012-11-01 19:56:00
4:56 PM,44.1,42.1,93,29.48,-9999.0,Calm,Calm,-,N/A,,Unknown,0,2012-11-01 20:56:00
5:56 PM,43.0,42.1,97,29.48,-9999.0,Calm,Calm,-,N/A,,Unknown,0,2012-11-01 21:56:00
6:56 PM,43.0,42.1,97,29.49,-9999.0,Calm,Calm,-,N/A,,Unknown,0,2012-11-01 22:56:00
7:56 PM,43.0,42.1,97,29.48,-9999.0,Calm,Calm,-,N/A,,Unknown,0,2012-11-01 23:56:00
8:56 PM,41.0,41.0,100,29.49,-9999.0,Calm,Calm,-,N/A,,Unknown,0,2012-11-02 00:56:00
9:56 PM,41.0,39.9,96,29.48,-9999.0,Calm,Calm,-,N/A,,Unknown,0,2012-11-02 01:56:00
10:56 PM,41.0,39.0,93,29.48,-9999.0,Calm,Calm,-,N/A,,Unknown,0,2012-11-02 02:56:00
11:56 PM,42.1,41.0,96,29.48,-9999.0,Calm,Calm,-,N/A,,Unknown,0,2012-11-02 03:56:00